| time (UTC) | temp F | wind direction | speed MPH | gust MPH | rain 1hr in | rain 24hr in | rain mn in | humidity % | barometer mb |
| 20260508114512 | 43 | 350 | 0.0 | 4.0 | 0.00 | 0.00 | 0.00 | 54 | 1016.8 |
| 20260508113008 | 43 | 31 | 3.0 | 7.0 | 0.00 | 0.00 | 0.00 | 55 | 1016.5 |
| 20260508111503 | 42 | 92 | 4.0 | 11.0 | 0.00 | 0.00 | 0.00 | 55 | 1016.0 |
| 20260508110104 | 41 | 107 | 5.0 | 15.0 | 0.00 | 0.00 | 0.00 | 58 | 1015.8 |
| 20260508104556 | 40 | 72 | 5.0 | 15.0 | 0.00 | 0.00 | 0.00 | 60 | 1015.5 |
| 20260508103056 | 40 | 38 | 5.0 | 10.0 | 0.00 | 0.00 | 0.00 | 63 | 1015.2 |
| 20260508101552 | 40 | 325 | 6.0 | 12.0 | 0.00 | 0.00 | 0.00 | 63 | 1014.8 |
| 20260508100051 | 40 | 74 | 6.0 | 15.0 | 0.00 | 0.00 | 0.00 | 64 | 1014.6 |
| 20260508094604 | 40 | 51 | 7.0 | 16.0 | 0.00 | 0.00 | 0.00 | 65 | 1014.1 |
| 20260508093048 | 40 | 18 | 8.0 | 15.0 | 0.00 | 0.00 | 0.00 | 68 | 1014.0 |
| 20260508091546 | 40 | 92 | 5.0 | 15.0 | 0.00 | 0.00 | 0.00 | 71 | 1014.2 |
| 20260508090044 | 41 | 17 | 5.0 | 15.0 | 0.00 | 0.00 | 0.00 | 72 | 1014.4 |
| 20260508084542 | 41 | 340 | 7.0 | 14.0 | 0.00 | 0.00 | 0.00 | 71 | 1014.4 |
| 20260508083116 | 41 | 46 | 5.0 | 13.0 | 0.00 | 0.00 | 0.00 | 72 | 1014.0 |
| 20260508081542 | 41 | 13 | 7.0 | 18.0 | 0.00 | 0.00 | 0.00 | 70 | 1013.7 |
| 20260508080041 | 42 | 36 | 6.0 | 13.0 | 0.00 | 0.01 | 0.00 | 71 | 1013.5 |
| 20260508074537 | 42 | 63 | 6.0 | 14.0 | 0.00 | 0.01 | 0.00 | 70 | 1013.3 |
| 20260508073034 | 42 | 28 | 9.0 | 19.0 | 0.00 | 0.01 | 0.00 | 70 | 1013.4 |
| 20260508071534 | 42 | 56 | 7.0 | 14.0 | 0.00 | 0.01 | 0.00 | 73 | 1013.3 |
| 20260508070028 | 42 | 46 | 7.0 | 16.0 | 0.00 | 0.01 | 0.00 | 75 | 1013.1 |
| 20260508064542 | 42 | 52 | 8.0 | 22.0 | 0.00 | 0.01 | 0.00 | 75 | 1013.3 |
| 20260508063025 | 42 | 331 | 5.0 | 16.0 | 0.00 | 0.01 | 0.00 | 77 | 1013.4 |
| 20260508061525 | 43 | 41 | 5.0 | 16.0 | 0.00 | 0.01 | 0.00 | 77 | 1013.3 |
| 20260508060022 | 43 | 33 | 8.0 | 18.0 | 0.00 | 0.01 | 0.00 | 76 | 1013.3 |
| 20260508054521 | 43 | 39 | 8.0 | 15.0 | 0.00 | 0.01 | 0.00 | 76 | 1013.3 |
| 20260508053017 | 44 | 20 | 6.0 | 15.0 | 0.00 | 0.01 | 0.00 | 76 | 1013.3 |
| 20260508051516 | 44 | 42 | 10.0 | 19.0 | 0.00 | 0.01 | 0.00 | 77 | 1013.3 |
| 20260508050014 | 44 | 41 | 6.0 | 20.0 | 0.00 | 0.03 | 0.00 | 78 | 1013.0 |
| 20260508044510 | 44 | 58 | 8.0 | 21.0 | 0.00 | 0.03 | 0.00 | 80 | 1012.7 |
| 20260508043007 | 44 | 46 | 7.0 | 16.0 | 0.00 | 0.03 | 0.00 | 81 | 1012.4 |
| 20260508041512 | 44 | 21 | 11.0 | 22.0 | 0.00 | 0.03 | 0.00 | 81 | 1012.0 |
| 20260508040001 | 44 | 112 | 9.0 | 21.0 | 0.00 | 0.03 | 0.03 | 81 | 1012.4 |
| 20260508034600 | 45 | 53 | 8.0 | 21.0 | 0.00 | 0.03 | 0.03 | 81 | 1012.5 |
| 20260508033103 | 45 | 331 | 8.0 | 16.0 | 0.00 | 0.03 | 0.03 | 80 | 1012.4 |
| 20260508031600 | 45 | 51 | 6.0 | 15.0 | 0.00 | 0.03 | 0.03 | 81 | 1012.4 |
| 20260508030116 | 45 | 316 | 8.0 | 24.0 | 0.00 | 0.05 | 0.03 | 81 | 1012.3 |
| 20260508024604 | 45 | 74 | 8.0 | 23.0 | 0.00 | 0.05 | 0.03 | 80 | 1012.2 |
| 20260508023054 | 45 | 11 | 6.0 | 21.0 | 0.00 | 0.05 | 0.03 | 79 | 1011.9 |
| 20260508021553 | 45 | 329 | 6.0 | 13.0 | 0.00 | 0.05 | 0.03 | 77 | 1011.6 |
| 20260508020051 | 46 | 202 | 6.0 | 19.0 | 0.00 | 0.06 | 0.03 | 76 | 1011.3 |
| 20260508014550 | 46 | 97 | 6.0 | 19.0 | 0.00 | 0.06 | 0.03 | 76 | 1011.0 |
| 20260508013049 | 46 | 348 | 7.0 | 15.0 | 0.00 | 0.06 | 0.03 | 74 | 1010.8 |
| 20260508011600 | 46 | 98 | 5.0 | 16.0 | 0.00 | 0.06 | 0.03 | 74 | 1010.4 |
| 20260508010057 | 46 | 336 | 3.0 | 16.0 | 0.00 | 0.06 | 0.03 | 73 | 1010.1 |
| 20260508004556 | 46 | 246 | 8.0 | 21.0 | 0.00 | 0.06 | 0.03 | 73 | 1010.1 |
| 20260508003044 | 46 | 119 | 6.0 | 20.0 | 0.00 | 0.06 | 0.03 | 72 | 1010.1 |
| 20260508001543 | 47 | 52 | 6.0 | 19.0 | 0.00 | 0.06 | 0.03 | 70 | 1010.2 |
| 20260508000038 | 47 | 44 | 5.0 | 16.0 | 0.00 | 0.06 | 0.03 | 70 | 1009.9 |
| 20260507234536 | 48 | 286 | 9.0 | 16.0 | 0.00 | 0.06 | 0.03 | 70 | 1010.0 |
| 20260507233033 | 48 | 241 | 6.0 | 16.0 | 0.00 | 0.06 | 0.03 | 71 | 1010.0 |
| 20260507231531 | 48 | 339 | 6.0 | 28.0 | 0.00 | 0.06 | 0.03 | 73 | 1009.5 |
| 20260507230028 | 48 | 30 | 8.0 | 19.0 | 0.00 | 0.06 | 0.03 | 78 | 1009.4 |
| 20260507224526 | 49 | 360 | 6.0 | 22.0 | 0.00 | 0.06 | 0.03 | 77 | 1009.3 |
| 20260507223023 | 50 | 135 | 7.0 | 13.0 | 0.00 | 0.06 | 0.03 | 74 | 1009.0 |
| 20260507221522 | 50 | 288 | 6.0 | 18.0 | 0.00 | 0.06 | 0.03 | 75 | 1008.8 |
| 20260507220020 | 51 | 300 | 9.0 | 21.0 | 0.00 | 0.06 | 0.03 | 76 | 1008.6 |
| 20260507214522 | 50 | 237 | 5.0 | 16.0 | 0.00 | 0.06 | 0.03 | 79 | 1008.5 |
| 20260507213018 | 51 | 263 | 5.0 | 16.0 | 0.00 | 0.06 | 0.03 | 79 | 1008.9 |
| 20260507211512 | 53 | 209 | 6.0 | 18.0 | 0.00 | 0.06 | 0.03 | 76 | 1008.4 |
| 20260507210010 | 55 | 219 | 5.0 | 18.0 | 0.00 | 0.06 | 0.03 | 73 | 1007.9 |
| 20260507204509 | 56 | 202 | 7.0 | 13.0 | 0.00 | 0.06 | 0.03 | 72 | 1007.8 |
| 20260507203008 | 57 | 225 | 7.0 | 18.0 | 0.00 | 0.06 | 0.03 | 71 | 1007.7 |
| 20260507201508 | 57 | 283 | 7.0 | 23.0 | 0.00 | 0.06 | 0.03 | 71 | 1007.6 |
| 20260507200017 | 58 | 279 | 8.0 | 15.0 | 0.00 | 0.06 | 0.03 | 71 | 1007.6 |
| 20260507194506 | 58 | 287 | 7.0 | 18.0 | 0.00 | 0.06 | 0.03 | 71 | 1007.9 |
| 20260507193006 | 60 | 13 | 7.0 | 14.0 | 0.00 | 0.06 | 0.03 | 69 | 1008.0 |
| 20260507191503 | 61 | 146 | 5.0 | 15.0 | 0.00 | 0.06 | 0.03 | 71 | 1008.0 |
| 20260507190004 | 60 | 229 | 6.0 | 12.0 | 0.00 | 0.06 | 0.03 | 73 | 1008.1 |
| 20260507184558 | 59 | 313 | 5.0 | 14.0 | 0.00 | 0.06 | 0.03 | 78 | 1008.2 |
| 20260507183059 | 58 | 19 | 5.0 | 12.0 | 0.00 | 0.06 | 0.03 | 80 | 1008.3 |
| 20260507181555 | 58 | 271 | 5.0 | 12.0 | 0.00 | 0.06 | 0.03 | 84 | 1008.3 |
| 20260507180054 | 56 | 5 | 4.0 | 9.0 | 0.00 | 0.06 | 0.03 | 88 | 1008.2 |
| 20260507174553 | 56 | 328 | 6.0 | 11.0 | 0.00 | 0.06 | 0.03 | 91 | 1008.4 |
| 20260507173055 | 54 | 61 | 5.0 | 9.0 | 0.00 | 0.06 | 0.03 | 94 | 1008.3 |
| 20260507171555 | 54 | 26 | 5.0 | 9.0 | 0.00 | 0.06 | 0.03 | 96 | 1008.6 |
| 20260507170050 | 54 | 77 | 5.0 | 9.0 | 0.00 | 0.07 | 0.03 | 97 | 1008.7 |
| 20260507164548 | 53 | 57 | 6.0 | 10.0 | 0.00 | 0.07 | 0.03 | 97 | 1008.7 |
| 20260507163045 | 53 | 72 | 6.0 | 10.0 | 0.00 | 0.07 | 0.03 | 97 | 1008.8 |
| 20260507161543 | 53 | 46 | 4.0 | 9.0 | 0.00 | 0.07 | 0.03 | 96 | 1008.7 |
| 20260507160041 | 53 | 67 | 5.0 | 10.0 | 0.00 | 0.07 | 0.03 | 96 | 1008.7 |
| 20260507154540 | 54 | 44 | 5.0 | 10.0 | 0.00 | 0.07 | 0.03 | 96 | 1008.8 |
| 20260507153042 | 55 | 22 | 6.0 | 10.0 | 0.00 | 0.07 | 0.03 | 95 | 1008.7 |
| 20260507151532 | 56 | 63 | 5.0 | 9.0 | 0.00 | 0.07 | 0.03 | 95 | 1008.7 |
| 20260507150032 | 57 | 63 | 2.0 | 6.0 | 0.00 | 0.07 | 0.03 | 92 | 1008.8 |
| 20260507144530 | 58 | 90 | 3.0 | 6.0 | 0.00 | 0.07 | 0.03 | 91 | 1008.7 |
| 20260507143029 | 58 | 73 | 3.0 | 6.0 | 0.00 | 0.07 | 0.03 | 90 | 1008.9 |
| 20260507141528 | 58 | 30 | 1.0 | 5.0 | 0.00 | 0.07 | 0.03 | 91 | 1008.8 |
| 20260507140028 | 57 | 53 | 4.0 | 7.0 | 0.00 | 0.07 | 0.03 | 93 | 1008.8 |
| 20260507134527 | 57 | 44 | 4.0 | 7.0 | 0.00 | 0.07 | 0.03 | 92 | 1009.1 |
| 20260507133024 | 58 | 103 | 0.0 | 0.0 | 0.00 | 0.07 | 0.03 | 91 | 1009.0 |
| 20260507131525 | 57 | 103 | 0.0 | 4.0 | 0.00 | 0.07 | 0.03 | 92 | 1008.7 |
| 20260507130022 | 57 | 168 | 0.0 | 0.0 | 0.00 | 0.07 | 0.03 | 91 | 1009.5 |
| 20260507124524 | 57 | 168 | 0.0 | 0.0 | 0.00 | 0.07 | 0.03 | 91 | 1009.6 |
| 20260507123018 | 57 | 168 | 0.0 | 6.0 | 0.00 | 0.07 | 0.03 | 90 | 1010.1 |
| 20260507121516 | 57 | 163 | 0.0 | 4.0 | 0.00 | 0.07 | 0.03 | 88 | 1010.2 |
| 20260507120014 | 56 | 252 | 1.0 | 6.0 | 0.00 | 0.07 | 0.03 | 89 | 1010.2 |